"read_dt","SO2 (ppb)","flags","PMT voltage (V)","lamp voltage (V)","lamp intensity (Hz)","internal temp (C)","react chamber temp (C)","sample flow (l/min)","pres (mmHg)","SO2 bkg (ppb)","SO2 coefficient"
2014-02-06 00:00:00,3389E-2,5C000490,-0724,1359,7004,027.8,045.3,0.116,773.3,01.15,0.508
2014-02-06 00:01:00,3416E-2,5C000490,-0724,1358,6899,027.9,045.3,0.116,773.3,01.15,0.508
2014-02-06 00:02:00,3375E-2,5C000490,-0724,1358,7007,027.9,045.3,0.116,773.3,01.15,0.508
2014-02-06 00:03:00,3404E-2,5C000490,-0724,1358,6985,027.9,045.3,0.116,773.4,01.15,0.508
2014-02-06 00:04:00,3383E-2,5C000490,-0724,1359,6940,027.9,045.3,0.116,773.4,01.15,0.508
2014-02-06 00:05:00,3388E-2,5C000490,-0724,1360,6975,027.9,045.3,0.116,773.4,01.15,0.508
2014-02-06 00:06:00,3333E-2,5C000490,-0724,1361,6919,027.9,045.3,0.116,773.4,01.15,0.508
2014-02-06 00:07:00,3400E-2,5C000490,-0724,1362,6982,027.9,045.3,0.116,773.4,01.15,0.508
2014-02-06 00:08:00,3368E-2,5C000490,-0724,1363,6842,027.9,045.3,0.000,773.4,01.15,0.508
2014-02-06 00:09:00,3420E-2,5C000490,-0724,1363,6955,027.9,045.3,0.116,773.3,01.15,0.508
2014-02-06 00:10:00,3423E-2,5C000490,-0724,1364,6889,027.9,045.3,0.116,773.4,01.15,0.508
2014-02-06 00:11:00,3393E-2,5C000490,-0724,1365,6876,027.9,045.3,0.116,773.4,01.15,0.508
2014-02-06 00:12:00,3414E-2,5C000490,-0724,1364,6960,027.9,045.3,0.116,773.4,01.15,0.508
2014-02-06 00:13:00,3411E-2,5C000490,-0724,1365,6907,027.9,045.3,0.116,773.4,01.15,0.508
2014-02-06 00:14:00,3363E-2,5C000490,-0724,1366,6911,027.9,045.3,0.116,773.4,01.15,0.508
2014-02-06 00:15:00,3435E-2,5C000490,-0724,1366,6854,027.9,045.3,0.116,773.4,01.15,0.508
2014-02-06 00:16:00,3433E-2,5C000490,-0724,1366,6915,027.9,045.3,0.116,773.5,01.15,0.508
2014-02-06 00:17:00,3427E-2,5C000490,-0724,1366,6825,027.9,045.3,0.116,773.5,01.15,0.508
2014-02-06 00:18:00,3402E-2,5C000490,-0724,1367,6884,027.9,045.3,0.116,773.5,01.15,0.508
2014-02-06 00:19:00,3396E-2,5C000490,-0724,1367,6871,027.9,045.3,0.116,773.5,01.15,0.508
2014-02-06 00:20:00,3428E-2,5C000490,-0724,1368,6847,027.9,045.3,0.000,773.5,01.15,0.508
2014-02-06 00:21:00,3432E-2,5C000490,-0724,1369,6855,027.9,045.3,0.104,773.5,01.15,0.508
2014-02-06 00:22:00,3432E-2,5C000490,-0724,1369,6845,027.9,045.3,0.116,773.5,01.15,0.508
2014-02-06 00:23:00,3395E-2,5C000490,-0724,1370,6825,027.9,045.3,0.116,773.5,01.15,0.508
2014-02-06 00:24:00,3389E-2,5C000490,-0724,1370,6791,027.9,045.3,0.116,773.5,01.15,0.508
2014-02-06 00:25:00,3413E-2,5C000490,-0724,1371,6818,027.9,045.3,0.116,773.5,01.15,0.508
2014-02-06 00:26:00,3412E-2,5C000490,-0724,1371,6727,027.9,045.3,0.116,773.5,01.15,0.508
2014-02-06 00:27:00,3382E-2,5C000490,-0724,1372,6772,027.9,045.3,0.116,773.5,01.15,0.508
2014-02-06 00:28:00,3398E-2,5C000490,-0724,1372,6747,027.9,045.3,0.116,773.5,01.15,0.508
2014-02-06 00:29:00,3417E-2,5C000490,-0724,1372,6688,027.9,045.3,0.116,773.5,01.15,0.508
2014-02-06 00:30:00,3413E-2,5C000490,-0724,1372,6771,027.9,045.3,0.116,773.6,01.15,0.508
2014-02-06 00:31:00,3415E-2,5C000490,-0724,1372,6828,027.9,045.3,0.116,773.6,01.15,0.508
2014-02-06 00:32:00,3430E-2,5C000490,-0724,1371,6845,027.8,045.3,0.116,773.5,01.15,0.508
2014-02-06 00:33:00,3468E-2,5C000490,-0724,1371,6807,027.9,045.3,0.116,773.5,01.15,0.508
2014-02-06 00:34:00,3407E-2,5C000490,-0724,1371,6732,027.9,045.3,0.116,773.5,01.15,0.508
2014-02-06 00:35:00,3434E-2,5C000490,-0724,1371,6815,027.9,045.3,0.116,773.5,01.15,0.508
2014-02-06 00:36:00,3436E-2,5C000490,-0724,1372,6753,027.9,045.3,0.116,773.5,01.15,0.508
2014-02-06 00:37:00,3471E-2,5C000490,-0724,1371,6820,027.9,045.3,0.116,773.5,01.15,0.508
2014-02-06 00:38:00,3466E-2,5C000490,-0724,1371,6826,027.9,045.3,0.116,773.6,01.15,0.508
2014-02-06 00:39:00,3484E-2,5C000490,-0724,1371,6789,027.9,045.3,0.116,773.6,01.15,0.508
2014-02-06 00:40:00,3429E-2,5C000490,-0724,1371,6624,027.9,045.3,0.116,773.6,01.15,0.508
2014-02-06 00:41:00,3457E-2,5C000490,-0724,1371,6805,027.9,045.3,0.116,773.6,01.15,0.508
2014-02-06 00:42:00,3548E-2,5C000490,-0724,1370,6737,027.9,045.3,0.116,773.6,01.15,0.508
2014-02-06 00:43:00,3514E-2,5C000490,-0724,1370,6810,027.9,045.3,0.116,773.6,01.15,0.508
2014-02-06 00:44:00,3485E-2,5C000490,-0724,1368,6833,027.9,045.3,0.116,773.7,01.15,0.508
2014-02-06 00:45:00,3533E-2,5C000490,-0724,1368,6880,027.9,045.3,0.000,773.6,01.15,0.508
2014-02-06 00:46:00,3532E-2,5C000490,-0724,1368,6860,027.9,045.3,0.000,773.6,01.15,0.508
2014-02-06 00:47:00,3554E-2,5C000490,-0724,1368,6819,027.9,045.3,0.000,773.6,01.15,0.508
2014-02-06 00:48:00,3534E-2,5C000490,-0724,1369,6852,027.9,045.3,0.000,773.6,01.15,0.508
2014-02-06 00:49:00,3533E-2,5C000490,-0724,1370,6790,027.9,045.3,0.000,773.6,01.15,0.508
2014-02-06 00:50:00,3558E-2,5C000490,-0724,1370,6832,027.8,045.3,0.000,773.6,01.15,0.508
2014-02-06 00:51:00,3531E-2,5C000490,-0724,1371,6819,027.9,045.3,0.000,773.6,01.15,0.508
2014-02-06 00:52:00,3506E-2,5C000490,-0724,1371,6784,027.9,045.3,0.000,773.6,01.15,0.508
2014-02-06 00:53:00,3547E-2,5C000490,-0724,1372,6761,027.9,045.3,0.000,773.6,01.15,0.508
2014-02-06 00:54:00,3527E-2,5C000490,-0724,1372,6775,027.9,045.3,0.000,773.6,01.15,0.508
2014-02-06 00:55:00,3511E-2,5C000490,-0724,1372,6737,027.9,045.3,0.116,773.5,01.15,0.508
2014-02-06 00:56:00,3572E-2,5C000490,-0724,1372,6729,027.9,045.3,0.116,773.5,01.15,0.508
2014-02-06 00:57:00,3497E-2,5C000490,-0724,1373,6703,027.9,045.3,0.000,773.5,01.15,0.508
2014-02-06 00:58:00,3505E-2,5C000490,-0724,1373,6687,027.9,045.3,0.116,773.5,01.15,0.508
2014-02-06 00:59:00,3506E-2,5C000490,-0724,1373,6723,027.9,045.3,0.116,773.6,01.15,0.508
2014-02-06 01:00:00,3514E-2,5C000490,-0724,1373,6708,027.9,045.3,0.116,773.6,01.15,0.508
2014-02-06 01:01:00,3502E-2,5C000490,-0724,1373,6696,027.8,045.3,0.116,773.6,01.15,0.508
2014-02-06 01:02:00,3571E-2,5C000490,-0724,1372,6752,027.9,045.3,0.116,773.6,01.15,0.508
2014-02-06 01:03:00,3536E-2,5C000490,-0724,1372,6752,027.9,045.3,0.116,773.5,01.15,0.508
2014-02-06 01:04:00,3500E-2,5C000490,-0724,1372,6802,027.9,045.3,0.116,773.5,01.15,0.508
2014-02-06 01:05:00,3515E-2,5C000490,-0724,1372,6796,027.9,045.3,0.116,773.5,01.15,0.508
2014-02-06 01:06:00,3533E-2,5C000490,-0724,1373,6684,027.9,045.3,0.116,773.6,01.15,0.508
2014-02-06 01:07:00,3537E-2,5C000490,-0724,1373,6735,027.9,045.3,0.116,773.5,01.15,0.508
2014-02-06 01:08:00,3563E-2,5C000490,-0724,1373,6670,027.9,045.3,0.116,773.5,01.15,0.508
2014-02-06 01:09:00,3514E-2,5C000490,-0724,1373,6725,027.9,045.3,0.116,773.6,01.15,0.508
2014-02-06 01:10:00,3525E-2,5C000490,-0724,1373,6759,027.9,045.3,0.116,773.6,01.15,0.508
2014-02-06 01:11:00,3510E-2,5C000490,-0724,1373,6730,027.9,045.3,0.115,773.6,01.15,0.508
2014-02-06 01:12:00,3552E-2,5C000490,-0724,1374,6685,028.0,045.3,0.115,773.6,01.15,0.508
2014-02-06 01:13:00,3513E-2,5C000490,-0724,1374,6665,027.9,045.3,0.116,773.5,01.15,0.508
2014-02-06 01:14:00,3525E-2,5C000490,-0724,1374,6612,027.9,045.3,0.116,773.5,01.15,0.508
2014-02-06 01:15:00,3511E-2,5C000490,-0724,1374,6632,027.9,045.3,0.116,773.5,01.15,0.508
2014-02-06 01:16:00,3512E-2,5C000490,-0724,1374,6660,027.9,045.3,0.116,773.6,01.15,0.508
2014-02-06 01:17:00,3576E-2,5C000490,-0724,1374,6684,027.9,045.3,0.116,773.6,01.15,0.508
2014-02-06 01:18:00,3530E-2,5C000490,-0724,1374,6616,027.8,045.3,0.116,773.6,01.15,0.508
2014-02-06 01:19:00,3502E-2,5C000490,-0724,1374,6590,027.9,045.3,0.116,773.6,01.15,0.508
2014-02-06 01:20:00,3526E-2,5C000490,-0724,1375,6619,027.8,045.3,0.116,773.6,01.15,0.508
2014-02-06 01:21:00,3500E-2,5C000490,-0724,1375,6660,027.9,045.3,0.116,773.7,01.15,0.508
2014-02-06 01:22:00,3499E-2,5C000490,-0724,1375,6593,027.8,045.3,0.116,773.6,01.15,0.508
2014-02-06 01:23:00,3560E-2,5C000490,-0724,1375,6526,027.9,045.3,0.116,773.6,01.15,0.508
2014-02-06 01:24:00,3499E-2,5C000490,-0724,1375,6446,027.9,045.3,0.116,773.6,01.15,0.508
2014-02-06 01:25:00,3543E-2,5C000490,-0724,1375,6568,027.9,045.3,0.116,773.6,01.15,0.508
2014-02-06 01:26:00,3562E-2,5C000490,-0724,1375,6482,027.8,045.3,0.116,773.6,01.15,0.508
2014-02-06 01:27:00,3545E-2,5C000490,-0724,1375,6442,027.8,045.3,0.116,773.6,01.15,0.508
2014-02-06 01:28:00,3522E-2,5C000490,-0724,1375,6507,027.8,045.3,0.116,773.6,01.15,0.508
2014-02-06 01:29:00,3518E-2,5C000490,-0724,1375,6546,027.9,045.3,0.116,773.6,01.15,0.508
2014-02-06 01:30:00,3552E-2,5C000490,-0724,1375,6538,027.9,045.3,0.116,773.6,01.15,0.508
2014-02-06 01:31:00,3564E-2,5C000490,-0724,1375,6524,027.9,045.3,0.116,773.6,01.15,0.508
2014-02-06 01:32:00,3581E-2,5C000490,-0724,1375,6519,027.9,045.3,0.116,773.6,01.15,0.508
2014-02-06 01:33:00,3600E-2,5C000490,-0724,1375,6587,027.9,045.3,0.116,773.6,01.15,0.508
2014-02-06 01:34:00,3579E-2,5C000490,-0724,1375,6570,027.9,045.3,0.000,773.7,01.15,0.508
2014-02-06 01:35:00,3535E-2,5C000490,-0724,1375,6566,027.8,045.3,0.116,773.7,01.15,0.508
2014-02-06 01:36:00,3615E-2,5C000490,-0724,1375,6583,027.9,045.3,0.116,773.7,01.15,0.508
2014-02-06 01:37:00,3529E-2,5C000490,-0724,1375,6544,027.8,045.3,0.116,773.6,01.15,0.508
2014-02-06 01:38:00,3595E-2,5C000490,-0724,1375,6552,027.8,045.3,0.116,773.6,01.15,0.508
2014-02-06 01:39:00,3577E-2,5C000490,-0724,1375,6503,027.9,045.3,0.116,773.7,01.15,0.508
2014-02-06 01:40:00,3571E-2,5C000490,-0724,1375,6454,027.9,045.3,0.116,773.6,01.15,0.508
2014-02-06 01:41:00,3610E-2,5C000490,-0724,1375,6474,027.9,045.3,0.116,773.6,01.15,0.508
2014-02-06 01:42:00,3584E-2,5C000490,-0724,1375,6535,027.8,045.3,0.116,773.7,01.15,0.508
2014-02-06 01:43:00,3555E-2,5C000490,-0724,1375,6481,027.8,045.3,0.116,773.7,01.15,0.508
2014-02-06 01:44:00,3566E-2,5C000490,-0724,1375,6577,027.8,045.3,0.116,773.7,01.15,0.508
2014-02-06 01:45:00,3624E-2,5C000490,-0724,1376,6478,027.8,045.3,0.116,773.7,01.15,0.508
2014-02-06 01:46:00,3576E-2,5C000490,-0724,1376,6523,027.8,045.3,0.116,773.7,01.15,0.508
2014-02-06 01:47:00,3585E-2,5C000490,-0724,1376,6460,027.8,045.3,0.000,773.7,01.15,0.508
2014-02-06 01:48:00,3584E-2,5C000490,-0724,1376,6480,027.8,045.3,0.000,773.7,01.15,0.508
2014-02-06 01:49:00,3582E-2,5C000490,-0724,1376,6513,027.8,045.3,0.000,773.7,01.15,0.508
2014-02-06 01:50:00,3548E-2,5C000490,-0724,1376,6378,027.8,045.3,0.116,773.8,01.15,0.508
2014-02-06 01:51:00,3558E-2,5C000490,-0724,1376,6436,027.8,045.3,0.116,773.8,01.15,0.508
2014-02-06 01:52:00,3558E-2,5C000490,-0724,1376,6524,027.8,045.3,0.116,773.7,01.15,0.508
2014-02-06 01:53:00,3559E-2,5C000490,-0724,1376,6409,027.8,045.3,0.116,773.7,01.15,0.508
2014-02-06 01:54:00,3586E-2,5C000490,-0724,1376,6493,027.8,045.3,0.116,773.7,01.15,0.508
2014-02-06 01:55:00,3590E-2,5C000490,-0724,1376,6517,027.8,045.3,0.116,773.8,01.15,0.508
2014-02-06 01:56:00,3588E-2,5C000490,-0724,1376,6477,027.8,045.3,0.116,773.8,01.15,0.508
2014-02-06 01:57:00,3661E-2,5C000490,-0724,1376,6458,027.9,045.3,0.116,773.9,01.15,0.508
2014-02-06 01:58:00,3566E-2,5C000490,-0724,1376,6496,027.8,045.3,0.116,773.9,01.15,0.508
2014-02-06 01:59:00,3598E-2,5C000490,-0724,1376,6420,027.9,045.3,0.000,773.8,01.15,0.508
2014-02-06 02:00:00,3586E-2,5C000490,-0724,1376,6408,027.9,045.3,0.116,773.8,01.15,0.508
2014-02-06 02:01:00,3591E-2,5C000490,-0724,1376,6377,027.9,045.3,0.116,773.8,01.15,0.508
2014-02-06 02:02:00,3580E-2,5C000490,-0724,1376,6391,027.9,045.3,0.116,773.9,01.15,0.508
2014-02-06 02:03:00,3579E-2,5C000490,-0724,1376,6314,027.9,045.3,0.116,773.9,01.15,0.508
2014-02-06 02:04:00,3583E-2,5C000490,-0724,1376,6356,027.9,045.3,0.116,773.9,01.15,0.508
2014-02-06 02:05:00,3624E-2,5C000490,-0724,1376,6360,027.8,045.3,0.116,774.0,01.15,0.508
2014-02-06 02:06:00,3566E-2,5C000490,-0724,1376,6385,027.9,045.3,0.116,774.0,01.15,0.508
2014-02-06 02:07:00,3589E-2,5C000490,-0724,1376,6432,027.9,045.3,0.116,774.0,01.15,0.508
2014-02-06 02:08:00,3587E-2,5C000490,-0724,1376,6304,027.9,045.3,0.116,774.0,01.15,0.508
2014-02-06 02:09:00,3569E-2,5C000490,-0724,1376,6354,027.9,045.3,0.116,773.9,01.15,0.508
2014-02-06 02:10:00,3611E-2,5C000490,-0724,1376,6316,027.9,045.3,0.116,773.9,01.15,0.508
2014-02-06 02:11:00,3604E-2,5C000490,-0724,1376,6366,027.9,045.3,0.116,773.9,01.15,0.508
2014-02-06 02:12:00,3587E-2,5C000490,-0724,1376,6295,027.9,045.3,0.116,773.9,01.15,0.508
2014-02-06 02:13:00,3571E-2,5C000490,-0724,1376,6329,027.8,045.3,0.116,773.9,01.15,0.508
2014-02-06 02:14:00,3592E-2,5C000490,-0724,1376,6189,027.9,045.3,0.116,773.9,01.15,0.508
2014-02-06 02:15:00,3610E-2,5C000490,-0724,1376,6338,027.8,045.3,0.116,773.9,01.15,0.508
2014-02-06 02:16:00,3573E-2,5C000490,-0724,1376,6260,027.9,045.3,0.116,773.9,01.15,0.508
2014-02-06 02:17:00,3626E-2,5C000490,-0724,1376,6291,027.9,045.3,0.116,773.9,01.15,0.508
2014-02-06 02:18:00,3617E-2,5C000490,-0724,1376,6304,027.9,045.3,0.116,773.9,01.15,0.508
2014-02-06 02:19:00,3618E-2,5C000490,-0724,1376,6259,027.9,045.3,0.116,773.9,01.15,0.508
2014-02-06 02:20:00,3604E-2,5C000490,-0724,1376,6240,027.8,045.3,0.116,773.9,01.15,0.508
2014-02-06 02:21:00,3618E-2,5C000490,-0724,1376,6235,027.9,045.3,0.116,773.9,01.15,0.508
2014-02-06 02:22:00,3583E-2,5C000490,-0724,1376,6237,027.9,045.3,0.116,773.9,01.15,0.508
2014-02-06 02:23:00,3599E-2,5C000490,-0724,1376,6177,027.9,045.3,0.116,773.9,01.15,0.508
2014-02-06 02:24:00,3629E-2,5C000490,-0724,1376,6186,027.9,045.3,0.000,773.9,01.15,0.508
2014-02-06 02:25:00,3547E-2,5C000490,-0724,1376,6141,027.9,045.3,0.000,773.9,01.15,0.508
2014-02-06 02:26:00,3574E-2,5C000490,-0724,1376,6190,027.9,045.3,0.000,773.9,01.15,0.508
2014-02-06 02:27:00,3654E-2,5C000490,-0724,1376,6277,027.9,045.3,0.000,773.9,01.15,0.508
2014-02-06 02:28:00,3594E-2,5C000490,-0724,1376,6182,027.9,045.3,0.000,773.9,01.15,0.508
2014-02-06 02:29:00,3634E-2,5C000490,-0724,1376,6218,027.8,045.3,0.000,773.9,01.15,0.508
2014-02-06 02:30:00,3617E-2,5C000490,-0724,1376,6224,027.8,045.3,0.000,773.9,01.15,0.508
2014-02-06 02:31:00,3650E-2,5C000490,-0724,1376,6294,027.8,045.3,0.000,773.9,01.15,0.508
2014-02-06 02:32:00,3615E-2,5C000490,-0724,1376,6193,027.8,045.3,0.000,773.9,01.15,0.508
2014-02-06 02:33:00,3641E-2,5C000490,-0724,1376,6221,027.8,045.3,0.000,773.9,01.15,0.508
2014-02-06 02:34:00,3608E-2,5C000490,-0724,1376,6244,027.8,045.3,0.000,773.8,01.15,0.508
2014-02-06 02:35:00,3607E-2,5C000490,-0724,1376,6274,027.8,045.3,0.000,773.8,01.15,0.508
2014-02-06 02:36:00,3628E-2,5C000490,-0724,1376,6192,027.8,045.3,0.000,773.8,01.15,0.508
2014-02-06 02:37:00,3637E-2,5C000490,-0724,1376,6191,027.8,045.3,0.116,773.8,01.15,0.508
2014-02-06 02:38:00,3617E-2,5C000490,-0724,1376,6160,027.8,045.3,0.116,773.8,01.15,0.508
2014-02-06 02:39:00,3637E-2,5C000490,-0724,1376,6187,027.8,045.3,0.116,773.9,01.15,0.508
2014-02-06 02:40:00,3628E-2,5C000490,-0724,1376,6190,027.8,045.3,0.116,773.9,01.15,0.508
2014-02-06 02:41:00,3645E-2,5C000490,-0724,1376,6223,027.8,045.3,0.116,773.9,01.15,0.508
2014-02-06 02:42:00,3623E-2,5C000490,-0724,1376,6244,027.8,045.3,0.116,773.9,01.15,0.508
2014-02-06 02:43:00,3618E-2,5C000490,-0724,1376,6206,027.8,045.3,0.116,773.9,01.15,0.508
2014-02-06 02:44:00,3704E-2,5C000490,-0724,1376,6172,027.8,045.3,0.116,773.9,01.15,0.508
2014-02-06 02:45:00,3676E-2,5C000490,-0724,1376,6266,027.8,045.3,0.116,774.0,01.15,0.508
2014-02-06 02:46:00,3679E-2,5C000490,-0724,1376,6216,027.8,045.3,0.116,774.0,01.15,0.508
2014-02-06 02:47:00,3716E-2,5C000490,-0724,1376,6326,027.8,045.3,0.116,774.0,01.15,0.508
2014-02-06 02:48:00,3654E-2,5C000490,-0724,1376,6273,027.8,045.3,0.116,774.1,01.15,0.508
2014-02-06 02:49:00,3679E-2,5C000490,-0724,1376,6336,027.8,045.3,0.116,774.1,01.15,0.508
2014-02-06 02:50:00,3645E-2,5C000490,-0724,1376,6281,027.8,045.3,0.116,774.1,01.15,0.508
2014-02-06 02:51:00,3640E-2,5C000490,-0724,1376,6259,027.8,045.3,0.116,774.1,01.15,0.508
2014-02-06 02:52:00,3699E-2,5C000490,-0724,1376,6274,027.8,045.3,0.116,774.1,01.15,0.508
2014-02-06 02:53:00,3700E-2,5C000490,-0724,1376,6163,027.8,045.3,0.116,774.1,01.15,0.508
2014-02-06 02:54:00,3663E-2,5C000490,-0724,1376,6237,027.8,045.3,0.116,774.1,01.15,0.508
2014-02-06 02:55:00,3634E-2,5C000490,-0724,1376,6257,027.8,045.3,0.116,774.0,01.15,0.508
2014-02-06 02:56:00,3618E-2,5C000490,-0724,1376,6178,027.8,045.3,0.116,774.0,01.15,0.508
2014-02-06 02:57:00,3671E-2,5C000490,-0724,1376,6208,027.8,045.3,0.116,774.0,01.15,0.508
2014-02-06 02:58:00,3688E-2,5C000490,-0724,1376,6267,027.8,045.3,0.116,774.1,01.15,0.508
2014-02-06 02:59:00,3724E-2,5C000490,-0724,1376,6153,027.8,045.3,0.116,774.1,01.15,0.508
2014-02-06 03:00:00,3668E-2,5C000490,-0724,1376,6214,027.8,045.3,0.116,774.1,01.15,0.508
2014-02-06 03:01:00,3687E-2,5C000490,-0724,1376,6201,027.8,045.3,0.000,774.1,01.15,0.508
2014-02-06 03:02:00,3664E-2,5C000490,-0724,1376,6156,027.8,045.3,0.000,774.1,01.15,0.508
2014-02-06 03:03:00,3701E-2,5C000490,-0724,1376,6197,027.8,045.3,0.116,774.2,01.15,0.508
2014-02-06 03:04:00,3674E-2,5C000490,-0724,1376,6192,027.8,045.3,0.116,774.2,01.15,0.508
2014-02-06 03:05:00,3707E-2,5C000490,-0724,1376,6186,027.9,045.3,0.116,774.2,01.15,0.508
2014-02-06 03:06:00,3684E-2,5C000490,-0724,1376,6133,027.8,045.3,0.116,774.2,01.15,0.508
2014-02-06 03:07:00,3661E-2,5C000490,-0724,1376,6169,027.9,045.3,0.116,774.2,01.15,0.508
2014-02-06 03:08:00,3697E-2,5C000490,-0724,1376,6130,027.8,045.3,0.116,774.2,01.15,0.508
2014-02-06 03:09:00,3709E-2,5C000490,-0724,1376,6175,027.9,045.3,0.116,774.2,01.15,0.508
2014-02-06 03:10:00,3677E-2,5C000490,-0724,1376,6177,027.8,045.3,0.116,774.2,01.15,0.508
2014-02-06 03:11:00,3710E-2,5C000490,-0724,1376,6164,027.8,045.3,0.116,774.3,01.15,0.508
2014-02-06 03:12:00,3704E-2,5C000490,-0724,1376,6170,027.8,045.3,0.116,774.3,01.15,0.508
2014-02-06 03:13:00,3697E-2,5C000490,-0724,1376,6152,027.8,045.3,0.116,774.3,01.15,0.508
2014-02-06 03:14:00,3719E-2,5C000490,-0724,1376,6080,027.8,045.3,0.116,774.2,01.15,0.508
2014-02-06 03:15:00,3713E-2,5C000490,-0724,1376,6130,027.8,045.3,0.116,774.1,01.15,0.508
2014-02-06 03:16:00,3723E-2,5C000490,-0724,1376,6158,027.8,045.3,0.116,774.1,01.15,0.508
2014-02-06 03:17:00,3729E-2,5C000490,-0724,1376,6138,027.8,045.3,0.116,774.2,01.15,0.508
2014-02-06 03:18:00,3711E-2,5C000490,-0724,1376,6112,027.7,045.3,0.116,774.3,01.15,0.508
2014-02-06 03:19:00,3735E-2,5C000490,-0724,1376,6099,027.7,045.3,0.116,774.3,01.15,0.508
2014-02-06 03:20:00,3678E-2,5C000490,-0724,1376,6126,027.8,045.3,0.116,774.2,01.15,0.508
2014-02-06 03:21:00,3737E-2,5C000490,-0724,1376,6089,027.7,045.3,0.116,774.2,01.15,0.508
2014-02-06 03:22:00,3684E-2,5C000490,-0724,1376,6031,027.7,045.3,0.116,774.2,01.15,0.508
2014-02-06 03:23:00,3703E-2,5C000490,-0724,1376,6049,027.8,045.3,0.116,774.1,01.15,0.508
2014-02-06 03:24:00,3736E-2,5C000490,-0724,1376,6091,027.8,045.3,0.116,774.1,01.15,0.508
2014-02-06 03:25:00,3741E-2,5C000490,-0724,1376,5940,027.7,045.3,0.000,774.1,01.15,0.508
2014-02-06 03:26:00,3707E-2,5C000490,-0724,1376,5939,027.7,045.3,0.000,774.2,01.15,0.508
2014-02-06 03:27:00,3731E-2,5C000490,-0724,1376,6009,027.8,045.3,0.000,774.2,01.15,0.508
2014-02-06 03:28:00,3705E-2,5C000490,-0724,1376,6070,027.7,045.3,0.000,774.2,01.15,0.508
2014-02-06 03:29:00,3712E-2,5C000490,-0724,1376,6006,027.7,045.3,0.000,774.2,01.15,0.508
2014-02-06 03:30:00,3733E-2,5C000490,-0724,1376,6001,027.8,045.3,0.000,774.2,01.15,0.508
2014-02-06 03:31:00,3717E-2,5C000490,-0724,1376,6028,027.8,045.3,0.000,774.1,01.15,0.508
2014-02-06 03:32:00,3743E-2,5C000490,-0724,1376,6044,027.7,045.3,0.000,774.1,01.15,0.508
2014-02-06 03:33:00,3707E-2,5C000490,-0724,1376,5903,027.8,045.3,0.000,774.1,01.15,0.508
2014-02-06 03:34:00,3759E-2,5C000490,-0724,1376,5963,027.8,045.3,0.000,774.1,01.15,0.508
2014-02-06 03:35:00,3708E-2,5C000490,-0724,1376,5948,027.8,045.3,0.000,774.1,01.15,0.508
2014-02-06 03:36:00,3705E-2,5C000490,-0724,1376,5945,027.7,045.3,0.000,774.1,01.15,0.508
2014-02-06 03:37:00,3708E-2,5C000490,-0724,1376,6017,027.8,045.3,0.000,774.1,01.15,0.508
2014-02-06 03:38:00,3722E-2,5C000490,-0724,1376,5993,027.8,045.3,0.116,774.1,01.15,0.508
2014-02-06 03:39:00,3753E-2,5C000490,-0724,1376,5941,027.8,045.3,0.116,774.1,01.15,0.508
2014-02-06 03:40:00,3725E-2,5C000490,-0724,1376,6044,027.8,045.3,0.116,774.1,01.15,0.508
2014-02-06 03:41:00,3721E-2,5C000490,-0724,1376,6036,027.8,045.3,0.116,774.1,01.15,0.508
2014-02-06 03:42:00,3724E-2,5C000490,-0724,1376,6039,027.8,045.3,0.116,774.1,01.15,0.508
2014-02-06 03:43:00,3707E-2,5C000490,-0724,1376,6120,027.8,045.3,0.116,774.2,01.15,0.508
2014-02-06 03:44:00,3710E-2,5C000490,-0724,1376,6091,027.8,045.3,0.116,774.2,01.15,0.508
2014-02-06 03:45:00,3768E-2,5C000490,-0724,1376,6115,027.7,045.3,0.116,774.3,01.15,0.508
2014-02-06 03:46:00,3727E-2,5C000490,-0724,1376,6019,027.7,045.3,0.116,774.3,01.15,0.508
2014-02-06 03:47:00,3698E-2,5C000490,-0724,1376,6052,027.8,045.3,0.116,774.3,01.15,0.508
2014-02-06 03:48:00,3691E-2,5C000490,-0724,1376,6071,027.8,045.3,0.116,774.3,01.15,0.508
2014-02-06 03:49:00,3701E-2,5C000490,-0724,1376,6069,027.7,045.3,0.116,774.3,01.15,0.508
2014-02-06 03:50:00,3747E-2,5C000490,-0724,1376,6050,027.7,045.3,0.116,774.4,01.15,0.508
2014-02-06 03:51:00,3696E-2,5C000490,-0724,1376,6044,027.7,045.3,0.116,774.3,01.15,0.508
2014-02-06 03:52:00,3720E-2,5C000490,-0724,1376,5957,027.7,045.3,0.116,774.3,01.15,0.508
2014-02-06 03:53:00,3737E-2,5C000490,-0724,1376,5966,027.7,045.3,0.116,774.3,01.15,0.508
2014-02-06 03:54:00,3711E-2,5C000490,-0724,1376,6010,027.7,045.3,0.116,774.3,01.15,0.508
2014-02-06 03:55:00,3715E-2,5C000490,-0724,1376,6046,027.7,045.3,0.116,774.3,01.15,0.508
2014-02-06 03:56:00,3688E-2,5C000490,-0724,1376,6035,027.7,045.3,0.116,774.4,01.15,0.508
2014-02-06 03:57:00,3743E-2,5C000490,-0724,1376,6049,027.7,045.3,0.116,774.4,01.15,0.508
2014-02-06 03:58:00,3694E-2,5C000490,-0724,1376,5929,027.7,045.3,0.116,774.4,01.15,0.508
2014-02-06 03:59:00,3693E-2,5C000490,-0724,1376,5916,027.8,045.3,0.116,774.3,01.15,0.508
2014-02-06 04:00:00,3692E-2,5C000490,-0724,1376,5976,027.7,045.3,0.116,774.3,01.15,0.508
2014-02-06 04:01:00,3716E-2,5C000490,-0724,1376,5990,027.8,045.3,0.116,774.4,01.15,0.508
2014-02-06 04:02:00,3727E-2,5C000490,-0724,1376,6058,027.8,045.3,0.116,774.4,01.15,0.508
2014-02-06 04:03:00,3727E-2,5C000490,-0724,1376,6039,027.7,045.3,0.116,774.4,01.15,0.508
2014-02-06 04:04:00,3757E-2,5C000490,-0724,1376,5983,027.7,045.3,0.116,774.4,01.15,0.508
2014-02-06 04:05:00,3734E-2,5C000490,-0724,1376,6080,027.7,045.3,0.116,774.4,01.15,0.508
2014-02-06 04:06:00,3746E-2,5C000490,-0724,1376,5990,027.7,045.3,0.116,774.5,01.15,0.508
2014-02-06 04:07:00,3746E-2,5C000490,-0724,1376,5975,027.7,045.3,0.116,774.5,01.15,0.508
2014-02-06 04:08:00,3709E-2,5C000490,-0724,1376,6022,027.7,045.3,0.116,774.5,01.15,0.508
2014-02-06 04:09:00,3730E-2,5C000490,-0724,1376,6021,027.7,045.3,0.116,774.6,01.15,0.508
2014-02-06 04:10:00,3722E-2,5C000490,-0724,1376,5963,027.8,045.3,0.116,774.6,01.15,0.508
2014-02-06 04:11:00,3783E-2,5C000490,-0724,1376,5968,027.7,045.3,0.116,774.6,01.15,0.508
2014-02-06 04:12:00,3755E-2,5C000490,-0724,1376,5915,027.7,045.3,0.116,774.7,01.15,0.508
2014-02-06 04:13:00,3727E-2,5C000490,-0724,1376,5975,027.7,045.3,0.116,774.7,01.15,0.508
2014-02-06 04:14:00,3729E-2,5C000490,-0724,1376,5927,027.7,045.3,0.116,774.7,01.15,0.508
2014-02-06 04:15:00,3727E-2,5C000490,-0724,1376,6034,027.7,045.3,0.000,774.7,01.15,0.508
2014-02-06 04:16:00,3738E-2,5C000490,-0724,1376,5990,027.7,045.3,0.000,774.8,01.15,0.508
2014-02-06 04:17:00,3754E-2,5C000490,-0724,1376,6027,027.7,045.3,0.000,774.8,01.15,0.508
2014-02-06 04:18:00,3754E-2,5C000490,-0724,1376,6067,027.7,045.3,0.000,774.9,01.15,0.508
2014-02-06 04:19:00,3761E-2,5C000490,-0724,1376,6024,027.7,045.3,0.000,774.9,01.15,0.508
2014-02-06 04:20:00,3708E-2,5C000490,-0724,1376,5982,027.7,045.3,0.000,774.9,01.15,0.508
2014-02-06 04:21:00,3703E-2,5C000490,-0724,1376,5948,027.7,045.3,0.000,774.8,01.15,0.508
2014-02-06 04:22:00,3710E-2,5C000490,-0724,1376,6018,027.7,045.3,0.000,774.8,01.15,0.508
2014-02-06 04:23:00,3727E-2,5C000490,-0724,1376,5995,027.6,045.3,0.000,774.9,01.15,0.508